Weather in Hopkinsville

United States     36°51′55″N   87°29′19″W
temp.,
°C
wind,
m/s
gust,
m/s
humid.,
%
clouds,
%
prec.,
mm/h
press.,
hPa
HPBL,
m
26 may, thu
thu2601:00+19s61687100 1.3 1011602
04:00+19sse81695100 3.3 1011889
07:00+19sse71595100 5.6 1011649
10:00+20sse61294100 2.1 10101057
13:00+19ssw51194100 3.5 1009780
16:00+23sw61063100 0.4 10071661
19:00+17sw612845 0.8 1008888
22:00+13ssw36974 0.1 1009170
27 may, fri
fri2701:00+13sw51391100 0.1 1009689
04:00+14sw5118877 0.0 1009724
07:00+13sw599483 0.4 1010578
10:00+15wsw578571 0.4 1011769
13:00+17w468395 1.4 1011767
16:00+19w687977 0.4 1011952
19:00+18wnw488611 0.8 1012589
22:00+16nw2892100 0.0 1013345
28 may, sat
sat2801:00+16wnw2494100 0.1 1013149
04:00+15nw259767 0.0 1013201
07:00+14n229533 0.0 1015132
10:00+19e22740 0.0 1015638
13:00+23ssw12607 0.0 10141380
16:00+25nnw135517 0.0 10131476
19:00+22ese34781 0.0 101277
22:00+17sse3488100 0.0 101354
29 may, sun
sun2901:00+16sse36936 0.0 101398
04:00+15sse369484 0.0 1013117
07:00+17sse49885 0.0 1014228
10:00+24s69670 0.0 1014601
13:00+28s575492 0.0 10141210
16:00+29sse5760100 0.0 10121214
19:00+24sse5117882 0.0 1013334
22:00+21sse41182100 0.0 1015212
30 may, mon
mon3001:00+19s41281100 0.0 1015218
04:00+18s41178100 0.0 1016199
07:00+19s2108213 0.0 1018225
10:00+26s47645 0.0 1019552
13:00+29s46532 0.0 10191809
16:00+30se56586 0.0 10171377
19:00+25sse410760 0.0 1018264
22:00+21sse33760 0.0 101927